Location: Peebles
(55.6412°N, 3.1714°W)
Time: 23:48:15
(UTC+00:00)

A-11 Canister half - Pass Details

Date: 03 October 2023
Orbit: 1525 x 1684 km, 47.3° (Epoch: 04 December)

Event Time Altitude Azimuth Distance (km) Brightness Sun altitude
Rises 20:16:05 0° 283° (WNW) 4,730 13.6 -13.8°
Reaches altitude 10° 20:20:14 10° 267° (W) 3,767 12.3 -14.4°
Maximum altitude 20:26:22 19° 226° (SW) 3,116 11.0 -15.2°
Drops below altitude 10° 20:32:37 10° 185° (S) 3,840 11.0 -16.0°
Sets 20:36:55 0° 170° (S) 4,851 11.3 -16.6°
